Location: Kernascl�den
(48.0062°N, 3.3198°W)
Time: 21:29:54
(UTC+00:00)

Cosmos 1812 Rocket - Pass Details

Date: 21 January 2021
Orbit: 604 x 633 km, 82.5° (Epoch: 04 March)

Event Time Altitude Azimuth Distance (km) Brightness Sun altitude
Rises 18:59:45 0° 352° (N) 2,915 7.0 -20.3°
Reaches altitude 10° 19:02:00 10° 354° (N) 1,999 6.2 -20.7°
Maximum altitude 19:06:25 73° 79° (E) 648 3.4 -21.4°
Drops below altitude 10° 19:10:46 10° 165° (SSE) 1,964 6.0 -22.1°
Sets 19:12:59 0° 167° (SSE) 2,860 6.9 -22.5°
